Terminal Aerodrome Forecast
Issued by NWS Cheyenne, WY

Home | Current Version | Previous Version | Text Only | Print | Product List | Glossary On
Versions: 1 2 3 4 5 6 7 8 9 10 11 12 13 14 15 16 17 18
000
FTUS45 KCYS 240143 AAA
TAFCYS
TAF AMD
KCYS 240143Z 2402/2424 01025G35KT P6SM -RASN OVC015
     FM240500 36025G35KT 1/2SM SN BLSN OVC005=

USA.gov is the U.S. government's official web portal to all federal, state and local government web resources and services.